Location: Passo di Treia
(43.2833°N, 13.3333°E)
Time: 13:13:17
(UTC+00:00)

CENTAUR R/B - Pass Details

Date: 09 December 2019
Orbit: 773 x 1415 km, 63.4° (Epoch: 18 January)

Event Time Altitude Azimuth Distance (km) Brightness Sun altitude
Rises 16:06:39 0° 320° (NW) 4,205 6.0 -6.6°
Reaches altitude 10° 16:09:26 10° 315° (NW) 3,308 5.5 -7.0°
Maximum altitude 16:17:15 50° 243° (WSW) 1,704 4.3 -8.3°
Drops below altitude 10° 16:25:33 10° 172° (S) 3,500 5.6 -9.7°
Sets 16:28:35 0° 167° (SSE) 4,464 6.1 -10.2°
